Year,Month,Day,Hour,Minute,Value (Times are PST for temperature in C)
2011,07,23,00,00,11.10
2011,07,23,00,01,11.10
2011,07,23,00,02,11.00
2011,07,23,00,03,11.00
2011,07,23,00,04,11.00
2011,07,23,00,05,11.00
2011,07,23,00,06,11.00
2011,07,23,00,07,11.00
2011,07,23,00,08,11.00
2011,07,23,00,09,10.90
2011,07,23,00,10,10.90
2011,07,23,00,11,11.00
2011,07,23,00,12,11.00
2011,07,23,00,13,11.00
2011,07,23,00,14,11.00
2011,07,23,00,15,11.00
2011,07,23,00,16,11.00
2011,07,23,00,17,11.00
2011,07,23,00,18,11.00
2011,07,23,00,19,11.00
2011,07,23,00,20,11.00
2011,07,23,00,21,11.00
2011,07,23,00,22,11.00
2011,07,23,00,23,11.00
2011,07,23,00,24,11.00
2011,07,23,00,25,11.00
2011,07,23,00,26,11.00
2011,07,23,00,27,11.00
2011,07,23,00,28,11.00
2011,07,23,00,29,11.00
2011,07,23,00,30,11.00
2011,07,23,00,31,11.00
2011,07,23,00,32,11.00
2011,07,23,00,33,11.00
2011,07,23,00,34,11.00
2011,07,23,00,35,11.00
2011,07,23,00,36,11.00
2011,07,23,00,37,11.00
2011,07,23,00,38,11.00
2011,07,23,00,39,11.00
2011,07,23,00,40,11.00
2011,07,23,00,41,11.00
2011,07,23,00,42,11.00
2011,07,23,00,43,11.00
2011,07,23,00,44,11.00
2011,07,23,00,45,11.00
2011,07,23,00,46,11.00
2011,07,23,00,47,11.00
2011,07,23,00,48,11.00
2011,07,23,00,49,11.00
2011,07,23,00,50,11.00
2011,07,23,00,51,11.00
2011,07,23,00,52,11.00
2011,07,23,00,53,11.00
2011,07,23,00,54,11.00
2011,07,23,00,55,11.00
2011,07,23,00,56,11.00
2011,07,23,00,57,11.00
2011,07,23,00,58,11.10
2011,07,23,00,59,11.10
2011,07,23,01,00,11.10
2011,07,23,01,01,11.10
2011,07,23,01,02,11.10
2011,07,23,01,03,11.10
2011,07,23,01,04,11.10
2011,07,23,01,05,11.10
2011,07,23,01,06,11.10
2011,07,23,01,07,11.10
2011,07,23,01,08,11.10
2011,07,23,01,09,11.10
2011,07,23,01,10,11.10
2011,07,23,01,11,11.10
2011,07,23,01,12,11.10
2011,07,23,01,13,11.10
2011,07,23,01,14,11.10
2011,07,23,01,15,11.10
2011,07,23,01,16,11.10
2011,07,23,01,17,11.10
2011,07,23,01,18,11.10
2011,07,23,01,19,11.10
2011,07,23,01,20,11.10
2011,07,23,01,21,11.10
2011,07,23,01,22,11.10
2011,07,23,01,23,11.10
2011,07,23,01,24,11.20
2011,07,23,01,25,11.20
2011,07,23,01,26,11.20
2011,07,23,01,27,11.20
2011,07,23,01,28,11.20
2011,07,23,01,29,11.20
2011,07,23,01,30,11.20
2011,07,23,01,31,11.20
2011,07,23,01,32,11.20
2011,07,23,01,33,11.20
2011,07,23,01,34,11.20
2011,07,23,01,35,11.20
2011,07,23,01,36,11.20
2011,07,23,01,37,11.20
2011,07,23,01,38,11.20
2011,07,23,01,39,11.20
2011,07,23,01,40,11.20
2011,07,23,01,41,11.20
2011,07,23,01,42,11.20
2011,07,23,01,43,11.20
2011,07,23,01,44,11.20
2011,07,23,01,45,11.20
2011,07,23,01,46,11.20
2011,07,23,01,47,11.20
2011,07,23,01,48,11.20
2011,07,23,01,49,11.20
2011,07,23,01,50,11.20
2011,07,23,01,51,11.20
2011,07,23,01,52,11.20
2011,07,23,01,53,11.10
2011,07,23,01,54,11.10
2011,07,23,01,55,11.20
2011,07,23,01,56,11.20
2011,07,23,01,57,11.20
2011,07,23,01,58,11.20
2011,07,23,01,59,11.20
2011,07,23,02,00,11.20
2011,07,23,02,01,11.20
2011,07,23,02,02,11.20
2011,07,23,02,03,11.20
2011,07,23,02,04,11.20
2011,07,23,02,05,11.10
2011,07,23,02,06,11.10
2011,07,23,02,07,11.10
2011,07,23,02,08,11.10
2011,07,23,02,09,11.10
2011,07,23,02,10,11.10
2011,07,23,02,11,11.10
2011,07,23,02,12,11.10
2011,07,23,02,13,11.10
2011,07,23,02,14,11.10
2011,07,23,02,15,11.10
2011,07,23,02,16,11.10
2011,07,23,02,17,11.10
2011,07,23,02,18,11.10
2011,07,23,02,19,11.10
2011,07,23,02,20,11.10
2011,07,23,02,21,11.10
2011,07,23,02,22,11.10
2011,07,23,02,23,11.10
2011,07,23,02,24,11.10
2011,07,23,02,25,11.10
2011,07,23,02,26,11.10
2011,07,23,02,27,11.10
2011,07,23,02,28,11.10
2011,07,23,02,29,11.10
2011,07,23,02,30,11.00
2011,07,23,02,31,11.00
2011,07,23,02,32,11.00
2011,07,23,02,33,11.00
2011,07,23,02,34,11.00
2011,07,23,02,35,11.00
2011,07,23,02,36,11.00
2011,07,23,02,37,11.00
2011,07,23,02,38,11.00
2011,07,23,02,39,11.00
2011,07,23,02,40,11.00
2011,07,23,02,41,11.00
2011,07,23,02,42,11.00
2011,07,23,02,43,11.00
2011,07,23,02,44,11.00
2011,07,23,02,45,11.00
2011,07,23,02,46,10.90
2011,07,23,02,47,10.90
2011,07,23,02,48,10.90
2011,07,23,02,49,10.90
2011,07,23,02,50,10.90
2011,07,23,02,51,10.90
2011,07,23,02,52,10.90
2011,07,23,02,53,10.90
2011,07,23,02,54,10.80
2011,07,23,02,55,10.80
2011,07,23,02,56,10.80
2011,07,23,02,57,10.80
2011,07,23,02,58,10.80
2011,07,23,02,59,10.70
2011,07,23,03,00,10.70
2011,07,23,03,01,10.70
2011,07,23,03,02,10.70
2011,07,23,03,03,10.70
2011,07,23,03,04,10.70
2011,07,23,03,05,10.60
2011,07,23,03,06,10.60
2011,07,23,03,07,10.60
2011,07,23,03,08,10.60
2011,07,23,03,09,10.50
2011,07,23,03,10,10.50
2011,07,23,03,11,10.50
2011,07,23,03,12,10.50
2011,07,23,03,13,10.40
2011,07,23,03,14,10.40
2011,07,23,03,15,10.40
2011,07,23,03,16,10.30
2011,07,23,03,17,10.30
2011,07,23,03,18,10.30
2011,07,23,03,19,10.30
2011,07,23,03,20,10.20
2011,07,23,03,21,10.20
2011,07,23,03,22,10.20
2011,07,23,03,23,10.20
2011,07,23,03,24,10.20
2011,07,23,03,25,10.20
2011,07,23,03,26,10.20
2011,07,23,03,27,10.20
2011,07,23,03,28,10.20
2011,07,23,03,29,10.20
2011,07,23,03,30,10.20
2011,07,23,03,31,10.10
2011,07,23,03,32,10.10
2011,07,23,03,33,10.10
2011,07,23,03,34,10.10
2011,07,23,03,35,10.10
2011,07,23,03,36,10.00
2011,07,23,03,37,10.00
2011,07,23,03,38,10.00
2011,07,23,03,39,10.00
2011,07,23,03,40,10.00
2011,07,23,03,41,10.00
2011,07,23,03,42,10.00
2011,07,23,03,43,9.90
2011,07,23,03,44,9.90
2011,07,23,03,49,9.80
2011,07,23,03,50,9.80
2011,07,23,03,51,9.80
2011,07,23,03,52,9.80
2011,07,23,03,53,9.80
2011,07,23,03,54,9.80
2011,07,23,03,55,9.80
2011,07,23,03,56,9.70
2011,07,23,03,57,9.70
2011,07,23,03,58,9.70
2011,07,23,03,59,9.70
2011,07,23,04,00,9.70
2011,07,23,04,01,9.70
2011,07,23,04,02,9.70
2011,07,23,04,03,9.70
2011,07,23,04,04,9.70
2011,07,23,04,05,9.70
2011,07,23,04,06,9.70
2011,07,23,04,07,9.70
2011,07,23,04,08,9.70
2011,07,23,04,09,9.70
2011,07,23,04,10,9.70
2011,07,23,04,11,9.60
2011,07,23,04,12,9.60
2011,07,23,04,13,9.60
2011,07,23,04,14,9.60
2011,07,23,04,15,9.60
2011,07,23,04,16,9.60
2011,07,23,04,17,9.60
2011,07,23,04,18,9.60
2011,07,23,04,19,9.60
2011,07,23,04,20,9.60
2011,07,23,04,21,9.60
2011,07,23,04,22,9.60
2011,07,23,04,23,9.60
2011,07,23,04,24,9.60
2011,07,23,04,25,9.60
2011,07,23,04,26,9.50
2011,07,23,04,27,9.50
2011,07,23,04,28,9.50
2011,07,23,04,29,9.50
2011,07,23,04,30,9.50
2011,07,23,04,31,9.50
2011,07,23,04,32,9.50
2011,07,23,04,33,9.40
2011,07,23,04,34,9.40
2011,07,23,04,35,9.40
2011,07,23,04,36,9.40
2011,07,23,04,37,9.40
2011,07,23,04,38,9.40
2011,07,23,04,39,9.40
2011,07,23,04,40,9.40
2011,07,23,04,41,9.40
2011,07,23,04,42,9.40
2011,07,23,04,43,9.40
2011,07,23,04,44,9.40
2011,07,23,04,45,9.40
2011,07,23,04,46,9.40
2011,07,23,04,47,9.40
2011,07,23,04,48,9.30
2011,07,23,04,49,9.30
2011,07,23,04,50,9.30
2011,07,23,04,51,9.30
2011,07,23,04,52,9.30
2011,07,23,04,53,9.30
2011,07,23,04,54,9.30
2011,07,23,04,55,9.30
2011,07,23,04,56,9.30
2011,07,23,04,57,9.30
2011,07,23,04,58,9.30
2011,07,23,04,59,9.30
2011,07,23,05,00,9.30
2011,07,23,05,01,9.30
2011,07,23,05,02,9.30
2011,07,23,05,03,9.20
2011,07,23,05,04,9.20
2011,07,23,05,05,9.20
2011,07,23,05,06,9.20
2011,07,23,05,07,9.20
2011,07,23,05,08,9.20
2011,07,23,05,09,9.20
2011,07,23,05,10,9.10
2011,07,23,05,11,9.10
2011,07,23,05,12,9.10
2011,07,23,05,13,9.10
2011,07,23,05,14,9.10
2011,07,23,05,15,9.10
2011,07,23,05,16,9.10
2011,07,23,05,17,9.10
2011,07,23,05,18,9.10
2011,07,23,05,19,9.10
2011,07,23,05,20,9.10
2011,07,23,05,21,9.10
2011,07,23,05,22,9.10
2011,07,23,05,23,9.10
2011,07,23,05,24,9.10
2011,07,23,05,25,9.10
2011,07,23,05,26,9.10
2011,07,23,05,27,9.10
2011,07,23,05,28,9.10
2011,07,23,05,29,9.10
2011,07,23,05,30,9.10
2011,07,23,05,31,9.10
2011,07,23,05,32,9.10
2011,07,23,05,33,9.10
2011,07,23,05,34,9.10
2011,07,23,05,35,9.00
2011,07,23,05,36,9.00
2011,07,23,05,37,9.00
2011,07,23,05,38,9.10
2011,07,23,05,39,9.10
2011,07,23,05,40,9.10
2011,07,23,05,41,9.10
2011,07,23,05,42,9.10
2011,07,23,05,43,9.10
2011,07,23,05,44,9.00
2011,07,23,05,45,9.00
2011,07,23,05,46,9.00
2011,07,23,05,47,9.00
2011,07,23,05,48,9.00
2011,07,23,05,49,9.00
2011,07,23,05,50,8.90
2011,07,23,05,51,8.90
2011,07,23,05,52,8.90
2011,07,23,05,53,8.90
2011,07,23,05,54,8.90
2011,07,23,05,55,8.90
2011,07,23,05,56,8.90
2011,07,23,05,57,8.90
2011,07,23,05,58,8.90
2011,07,23,05,59,8.90
2011,07,23,06,00,8.90
2011,07,23,06,01,8.90
2011,07,23,06,02,8.90
2011,07,23,06,03,8.90
2011,07,23,06,04,8.90
2011,07,23,06,05,8.90
2011,07,23,06,06,8.90
2011,07,23,06,07,8.90
2011,07,23,06,08,8.90
2011,07,23,06,09,8.90
2011,07,23,06,10,8.90
2011,07,23,06,11,8.90
2011,07,23,06,12,8.90
2011,07,23,06,13,8.90
2011,07,23,06,14,8.90
2011,07,23,06,15,9.00
2011,07,23,06,16,9.00
2011,07,23,06,17,9.00
2011,07,23,06,18,9.00
2011,07,23,06,19,9.10
2011,07,23,06,20,9.10
2011,07,23,06,21,9.10
2011,07,23,06,22,9.10
2011,07,23,06,23,9.20
2011,07,23,06,24,9.20
2011,07,23,06,25,9.20
2011,07,23,06,26,9.20
2011,07,23,06,27,9.30
2011,07,23,06,28,9.30
2011,07,23,06,29,9.30
2011,07,23,06,30,9.30
2011,07,23,06,31,9.40
2011,07,23,06,32,9.40
2011,07,23,06,33,9.50
2011,07,23,06,34,9.50
2011,07,23,06,35,9.60
2011,07,23,06,36,9.60
2011,07,23,06,37,9.60
2011,07,23,06,38,9.70
2011,07,23,06,39,9.70
2011,07,23,06,40,9.70
2011,07,23,06,41,9.70
2011,07,23,06,42,9.70
2011,07,23,06,43,9.80
2011,07,23,06,44,9.80
2011,07,23,06,45,9.80
2011,07,23,06,46,9.90
2011,07,23,06,47,9.90
2011,07,23,06,48,9.90
2011,07,23,06,49,9.90
2011,07,23,06,50,9.90
2011,07,23,06,51,9.90
2011,07,23,06,52,9.90
2011,07,23,06,53,10.00
2011,07,23,06,54,10.00
2011,07,23,06,55,10.10
2011,07,23,06,56,10.10
2011,07,23,06,57,10.20
2011,07,23,06,58,10.20
2011,07,23,06,59,10.20
2011,07,23,07,00,10.20
2011,07,23,07,01,10.30
2011,07,23,07,02,10.30
2011,07,23,07,03,10.30
2011,07,23,07,04,10.30
2011,07,23,07,05,10.40
2011,07,23,07,06,10.40
2011,07,23,07,07,10.40
2011,07,23,07,08,10.40
2011,07,23,07,09,10.50
2011,07,23,07,10,10.50
2011,07,23,07,11,10.50
2011,07,23,07,12,10.60
2011,07,23,07,13,10.70
2011,07,23,07,14,10.70
2011,07,23,07,15,10.80
2011,07,23,07,16,10.90
2011,07,23,07,17,10.90
2011,07,23,07,18,11.00
2011,07,23,07,19,11.10
2011,07,23,07,20,11.20
2011,07,23,07,21,11.20
2011,07,23,07,22,11.30
2011,07,23,07,23,11.40
2011,07,23,07,24,11.50
2011,07,23,07,25,11.60
2011,07,23,07,26,11.80
2011,07,23,07,27,11.90
2011,07,23,07,28,12.00
2011,07,23,07,29,12.10
2011,07,23,07,30,12.20
2011,07,23,07,31,12.30
2011,07,23,07,32,12.40
2011,07,23,07,33,12.50
2011,07,23,07,34,12.50
2011,07,23,07,35,12.60
2011,07,23,07,36,12.70
2011,07,23,07,37,12.80
2011,07,23,07,38,12.90
2011,07,23,07,39,13.00
2011,07,23,07,40,13.00
2011,07,23,07,41,13.10
2011,07,23,07,42,13.10
2011,07,23,07,43,13.20
2011,07,23,07,44,13.20
2011,07,23,07,45,13.40
2011,07,23,07,46,13.50
2011,07,23,07,47,13.60
2011,07,23,07,48,13.60
2011,07,23,07,49,13.70
2011,07,23,07,50,13.80
2011,07,23,07,51,13.80
2011,07,23,07,52,13.90
2011,07,23,07,53,14.00
2011,07,23,07,54,14.10
2011,07,23,07,55,14.20
2011,07,23,07,56,14.20
2011,07,23,07,57,14.30
2011,07,23,07,58,14.30
2011,07,23,07,59,14.40
2011,07,23,08,00,14.40
2011,07,23,08,01,14.40
2011,07,23,08,02,14.40
2011,07,23,08,03,14.40
2011,07,23,08,04,14.40
2011,07,23,08,05,14.40
2011,07,23,08,06,14.40
2011,07,23,08,07,14.50
2011,07,23,08,08,14.60
2011,07,23,08,09,14.70
2011,07,23,08,10,14.80
2011,07,23,08,11,14.90
2011,07,23,08,12,15.00
2011,07,23,08,13,15.00
2011,07,23,08,14,15.00
2011,07,23,08,15,15.10
2011,07,23,08,16,15.20
2011,07,23,08,17,15.30
2011,07,23,08,18,15.30
2011,07,23,08,19,15.40
2011,07,23,08,20,15.50
2011,07,23,08,21,15.60
2011,07,23,08,22,15.70
2011,07,23,08,23,15.80
2011,07,23,08,24,15.80
2011,07,23,08,25,15.90
2011,07,23,08,26,15.90
2011,07,23,08,27,16.00
2011,07,23,08,28,16.00
2011,07,23,08,29,16.10
2011,07,23,08,30,16.10
2011,07,23,08,31,16.10
2011,07,23,08,32,16.10
2011,07,23,08,33,16.10
2011,07,23,08,34,16.10
2011,07,23,08,35,16.10
2011,07,23,08,36,16.00
2011,07,23,08,37,16.00
2011,07,23,08,38,15.90
2011,07,23,08,39,15.80
2011,07,23,08,40,15.80
2011,07,23,08,41,15.70
2011,07,23,08,42,15.70
2011,07,23,08,43,15.70
2011,07,23,08,44,15.70
2011,07,23,08,45,15.70
2011,07,23,08,46,15.70
2011,07,23,08,47,15.70
2011,07,23,08,48,15.70
2011,07,23,08,49,15.70
2011,07,23,08,50,15.80
2011,07,23,08,51,15.80
2011,07,23,08,52,15.80
2011,07,23,08,53,15.90
2011,07,23,08,54,15.90
2011,07,23,08,55,16.00
2011,07,23,08,56,16.00
2011,07,23,08,57,16.00
2011,07,23,08,58,16.00
2011,07,23,08,59,16.00
2011,07,23,09,00,15.90
2011,07,23,09,01,15.90
2011,07,23,09,02,15.90
2011,07,23,09,03,15.90
2011,07,23,09,04,15.90
2011,07,23,09,05,15.90
2011,07,23,09,06,15.90
2011,07,23,09,07,15.90
2011,07,23,09,08,16.00
2011,07,23,09,09,16.00
2011,07,23,09,10,16.20
2011,07,23,09,11,16.30
2011,07,23,09,12,16.40
2011,07,23,09,13,16.40
2011,07,23,09,14,16.50
2011,07,23,09,15,16.60
2011,07,23,09,16,16.70
2011,07,23,09,17,16.80
2011,07,23,09,18,16.80
2011,07,23,09,19,16.80
2011,07,23,09,20,16.70
2011,07,23,09,21,16.70
2011,07,23,09,22,16.70
2011,07,23,09,23,16.60
2011,07,23,09,24,16.50
2011,07,23,09,25,16.40
2011,07,23,09,26,16.40
2011,07,23,09,27,16.40
2011,07,23,09,28,16.30
2011,07,23,09,29,16.30
2011,07,23,09,30,16.30
2011,07,23,09,31,16.30
2011,07,23,09,32,16.30
2011,07,23,09,33,16.10
2011,07,23,09,34,16.00
2011,07,23,09,35,15.90
2011,07,23,09,36,15.80
2011,07,23,09,37,15.80
2011,07,23,09,38,15.80
2011,07,23,09,39,15.90
2011,07,23,09,40,15.90
2011,07,23,09,41,16.10
2011,07,23,09,42,16.30
2011,07,23,09,43,16.40
2011,07,23,09,44,16.40
2011,07,23,09,45,16.50
2011,07,23,09,46,16.60
2011,07,23,09,47,16.60
2011,07,23,09,48,16.60
2011,07,23,09,49,16.60
2011,07,23,09,50,16.60
2011,07,23,09,51,16.50
2011,07,23,09,52,16.50
2011,07,23,09,53,16.40
2011,07,23,09,54,16.40
2011,07,23,09,55,16.30
2011,07,23,09,56,16.30
2011,07,23,09,57,16.20
2011,07,23,09,58,16.20
2011,07,23,09,59,16.20
2011,07,23,10,00,16.30
2011,07,23,10,01,16.30
2011,07,23,10,02,16.30
2011,07,23,10,03,16.20
2011,07,23,10,04,16.20
2011,07,23,10,05,16.20
2011,07,23,10,06,16.30
2011,07,23,10,07,16.30
2011,07,23,10,08,16.30
2011,07,23,10,09,16.30
2011,07,23,10,10,16.40
2011,07,23,10,11,16.50
2011,07,23,10,12,16.60
2011,07,23,10,13,16.70
2011,07,23,10,14,16.80
2011,07,23,10,15,16.90
2011,07,23,10,16,16.90
2011,07,23,10,17,17.00
2011,07,23,10,18,17.10
2011,07,23,10,19,17.20
2011,07,23,10,20,17.30
2011,07,23,10,21,17.30
2011,07,23,10,22,17.40
2011,07,23,10,23,17.40
2011,07,23,10,24,17.30
2011,07,23,10,25,17.40
2011,07,23,10,26,17.40
2011,07,23,10,27,17.50
2011,07,23,10,28,17.50
2011,07,23,10,29,17.60
2011,07,23,10,30,17.60
2011,07,23,10,31,17.60
2011,07,23,10,32,17.60
2011,07,23,10,33,17.70
2011,07,23,10,34,17.70
2011,07,23,10,35,17.70
2011,07,23,10,36,17.70
2011,07,23,10,37,17.60
2011,07,23,10,38,17.50
2011,07,23,10,39,17.50
2011,07,23,10,40,17.40
2011,07,23,10,41,17.30
2011,07,23,10,42,17.30
2011,07,23,10,43,17.30
2011,07,23,10,44,17.20
2011,07,23,10,45,17.20
2011,07,23,10,46,17.30
2011,07,23,10,47,17.40
2011,07,23,10,48,17.50
2011,07,23,10,49,17.70
2011,07,23,10,50,17.80
2011,07,23,10,51,17.90
2011,07,23,10,52,18.00
2011,07,23,10,53,18.10
2011,07,23,10,54,18.20
2011,07,23,10,55,18.30
2011,07,23,10,56,18.30
2011,07,23,10,57,18.30
2011,07,23,10,58,18.30
2011,07,23,10,59,18.30
2011,07,23,11,00,18.40
2011,07,23,11,01,18.50
2011,07,23,11,02,18.50
2011,07,23,11,03,18.60
2011,07,23,11,04,18.60
2011,07,23,11,05,18.50
2011,07,23,11,06,18.40
2011,07,23,11,07,18.30
2011,07,23,11,08,18.20
2011,07,23,11,09,18.20
2011,07,23,11,10,18.30
2011,07,23,11,11,18.30
2011,07,23,11,12,18.30
2011,07,23,11,13,18.30
2011,07,23,11,14,18.20
2011,07,23,11,15,18.20
2011,07,23,11,16,18.30
2011,07,23,11,17,18.30
2011,07,23,11,18,18.40
2011,07,23,11,19,18.50
2011,07,23,11,20,18.50
2011,07,23,11,21,18.60
2011,07,23,11,22,18.60
2011,07,23,11,23,18.70
2011,07,23,11,24,18.80
2011,07,23,11,25,18.90
2011,07,23,11,26,19.00
2011,07,23,11,27,19.00
2011,07,23,11,28,19.00
2011,07,23,11,29,19.10
2011,07,23,11,30,19.10
2011,07,23,11,31,19.10
2011,07,23,11,32,19.10
2011,07,23,11,33,19.10
2011,07,23,11,34,19.10
2011,07,23,11,35,19.10
2011,07,23,11,36,19.00
2011,07,23,11,37,19.00
2011,07,23,11,38,18.90
2011,07,23,11,39,18.80
2011,07,23,11,40,18.90
2011,07,23,11,41,19.00
2011,07,23,11,42,19.20
2011,07,23,11,43,19.20
2011,07,23,11,44,19.10
2011,07,23,11,45,19.00
2011,07,23,11,46,19.00
2011,07,23,11,47,18.90
2011,07,23,11,48,18.80
2011,07,23,11,49,18.60
2011,07,23,11,50,18.60
2011,07,23,11,51,18.60
2011,07,23,11,52,18.60
2011,07,23,11,53,18.70
2011,07,23,11,54,18.70
2011,07,23,11,55,18.80
2011,07,23,11,56,18.80
2011,07,23,11,57,18.90
2011,07,23,11,58,19.00
2011,07,23,11,59,19.10
2011,07,23,12,00,19.20
2011,07,23,12,01,19.20
2011,07,23,12,02,19.20
2011,07,23,12,03,19.20
2011,07,23,12,04,19.20
2011,07,23,12,05,19.30
2011,07,23,12,06,19.30
2011,07,23,12,07,19.30
2011,07,23,12,08,19.30
2011,07,23,12,09,19.30
2011,07,23,12,10,19.40
2011,07,23,12,11,19.40
2011,07,23,12,12,19.50
2011,07,23,12,13,19.50
2011,07,23,12,14,19.50
2011,07,23,12,15,19.50
2011,07,23,12,16,19.50
2011,07,23,12,17,19.50
2011,07,23,12,18,19.60
2011,07,23,12,19,19.60
2011,07,23,12,20,19.60
2011,07,23,12,21,19.60
2011,07,23,12,22,19.60
2011,07,23,12,23,19.60
2011,07,23,12,24,19.70
2011,07,23,12,25,19.80
2011,07,23,12,26,19.90
2011,07,23,12,27,20.10
2011,07,23,12,28,20.10
2011,07,23,12,29,20.30
2011,07,23,12,30,20.40
2011,07,23,12,31,20.50
2011,07,23,12,32,20.60
2011,07,23,12,33,20.50
2011,07,23,12,34,20.40
2011,07,23,12,35,20.30
2011,07,23,12,36,20.30
2011,07,23,12,37,20.20
2011,07,23,12,38,20.10
2011,07,23,12,39,20.00
2011,07,23,12,40,19.90
2011,07,23,12,41,19.90
2011,07,23,12,42,20.00
2011,07,23,12,43,20.00
2011,07,23,12,44,20.10
2011,07,23,12,45,20.10
2011,07,23,12,46,20.10
2011,07,23,12,47,20.20
2011,07,23,12,48,20.20
2011,07,23,12,49,20.30
2011,07,23,12,50,20.40
2011,07,23,12,51,20.40
2011,07,23,12,52,20.50
2011,07,23,12,53,20.50
2011,07,23,12,54,20.50
2011,07,23,12,55,20.40
2011,07,23,12,56,20.40
2011,07,23,12,57,20.40
2011,07,23,12,58,20.30
2011,07,23,12,59,20.30
2011,07,23,13,00,20.40
2011,07,23,13,01,20.50
2011,07,23,13,02,20.70
2011,07,23,13,03,20.80
2011,07,23,13,04,20.90
2011,07,23,13,05,21.00
2011,07,23,13,06,21.00
2011,07,23,13,07,21.10
2011,07,23,13,08,21.10
2011,07,23,13,09,21.10
2011,07,23,13,10,21.20
2011,07,23,13,11,21.30
2011,07,23,13,12,21.30
2011,07,23,13,13,21.20
2011,07,23,13,14,21.20
2011,07,23,13,15,21.20
2011,07,23,13,16,21.30
2011,07,23,13,17,21.30
2011,07,23,13,18,21.30
2011,07,23,13,19,21.30
2011,07,23,13,20,21.30
2011,07,23,13,21,21.30
2011,07,23,13,22,21.30
2011,07,23,13,23,21.30
2011,07,23,13,24,21.40
2011,07,23,13,25,21.40
2011,07,23,13,26,21.40
2011,07,23,13,27,21.30
2011,07,23,13,28,21.30
2011,07,23,13,29,21.30
2011,07,23,13,30,21.20
2011,07,23,13,31,21.20
2011,07,23,13,32,21.20
2011,07,23,13,33,21.20
2011,07,23,13,34,21.30
2011,07,23,13,35,21.40
2011,07,23,13,36,21.40
2011,07,23,13,37,21.30
2011,07,23,13,38,21.20
2011,07,23,13,39,21.30
2011,07,23,13,40,21.40
2011,07,23,13,41,21.50
2011,07,23,13,42,21.60
2011,07,23,13,43,21.50
2011,07,23,13,44,21.40
2011,07,23,13,45,21.40
2011,07,23,13,46,21.40
2011,07,23,13,47,21.40
2011,07,23,13,48,21.50
2011,07,23,13,49,21.60
2011,07,23,13,50,21.60
2011,07,23,13,51,21.50
2011,07,23,13,52,21.40
2011,07,23,13,53,21.20
2011,07,23,13,54,21.20
2011,07,23,13,55,21.10
2011,07,23,13,56,21.00
2011,07,23,13,57,21.00
2011,07,23,13,58,21.10
2011,07,23,13,59,21.20
2011,07,23,14,00,21.30
2011,07,23,14,01,21.50
2011,07,23,14,02,21.60
2011,07,23,14,03,21.70
2011,07,23,14,04,21.80
2011,07,23,14,05,21.80
2011,07,23,14,06,21.90
2011,07,23,14,07,22.00
2011,07,23,14,08,22.10
2011,07,23,14,09,22.10
2011,07,23,14,10,22.10
2011,07,23,14,11,22.00
2011,07,23,14,12,22.00
2011,07,23,14,13,22.00
2011,07,23,14,14,22.00
2011,07,23,14,15,22.00
2011,07,23,14,16,22.00
2011,07,23,14,17,22.00
2011,07,23,14,18,22.00
2011,07,23,14,19,22.00
2011,07,23,14,20,22.00
2011,07,23,14,21,22.00
2011,07,23,14,22,21.90
2011,07,23,14,23,21.90
2011,07,23,14,24,22.00
2011,07,23,14,25,22.10
2011,07,23,14,26,22.30
2011,07,23,14,27,22.40
2011,07,23,14,28,22.40
2011,07,23,14,29,22.40
2011,07,23,14,30,22.40
2011,07,23,14,31,22.40
2011,07,23,14,32,22.30
2011,07,23,14,33,22.30
2011,07,23,14,34,22.30
2011,07,23,14,35,22.40
2011,07,23,14,36,22.40
2011,07,23,14,37,22.40
2011,07,23,14,38,22.30
2011,07,23,14,39,22.30
2011,07,23,14,40,22.20
2011,07,23,14,41,22.10
2011,07,23,14,42,22.10
2011,07,23,14,43,22.00
2011,07,23,14,44,22.00
2011,07,23,14,45,22.10
2011,07,23,14,46,22.20
2011,07,23,14,47,22.10
2011,07,23,14,48,22.10
2011,07,23,14,49,22.10
2011,07,23,14,50,22.10
2011,07,23,14,51,22.10
2011,07,23,14,52,22.00
2011,07,23,14,53,21.90
2011,07,23,14,54,21.90
2011,07,23,14,55,21.90
2011,07,23,14,56,21.90
2011,07,23,14,57,22.00
2011,07,23,14,58,22.00
2011,07,23,14,59,22.00
2011,07,23,15,00,22.00
2011,07,23,15,01,22.00
2011,07,23,15,02,22.10
2011,07,23,15,03,22.10
2011,07,23,15,04,22.10
2011,07,23,15,05,22.10
2011,07,23,15,06,22.10
2011,07,23,15,07,22.20
2011,07,23,15,08,22.20
2011,07,23,15,09,22.20
2011,07,23,15,10,22.20
2011,07,23,15,11,22.20
2011,07,23,15,12,22.20
2011,07,23,15,13,22.20
2011,07,23,15,14,22.20
2011,07,23,15,15,22.20
2011,07,23,15,16,22.10
2011,07,23,15,17,22.10
2011,07,23,15,18,22.10
2011,07,23,15,19,22.10
2011,07,23,15,20,22.10
2011,07,23,15,21,22.00
2011,07,23,15,22,22.00
2011,07,23,15,23,21.90
2011,07,23,15,24,21.80
2011,07,23,15,25,21.90
2011,07,23,15,26,21.90
2011,07,23,15,27,21.90
2011,07,23,15,28,22.00
2011,07,23,15,29,22.00
2011,07,23,15,30,22.00
2011,07,23,15,31,22.00
2011,07,23,15,32,22.00
2011,07,23,15,33,22.10
2011,07,23,15,34,22.10
2011,07,23,15,35,22.10
2011,07,23,15,36,22.10
2011,07,23,15,37,22.10
2011,07,23,15,38,22.10
2011,07,23,15,39,22.10
2011,07,23,15,40,22.20
2011,07,23,15,41,22.20
2011,07,23,15,42,22.20
2011,07,23,15,43,22.30
2011,07,23,15,44,22.30
2011,07,23,15,45,22.30
2011,07,23,15,46,22.30
2011,07,23,15,47,22.30
2011,07,23,15,48,22.30
2011,07,23,15,49,22.20
2011,07,23,15,50,22.30
2011,07,23,15,51,22.40
2011,07,23,15,52,22.50
2011,07,23,15,53,22.40
2011,07,23,15,54,22.40
2011,07,23,15,55,22.40
2011,07,23,15,56,22.40
2011,07,23,15,57,22.50
2011,07,23,15,58,22.50
2011,07,23,15,59,22.60
2011,07,23,16,00,22.70
2011,07,23,16,01,22.80
2011,07,23,16,02,22.90
2011,07,23,16,03,23.00
2011,07,23,16,04,23.00
2011,07,23,16,05,23.10
2011,07,23,16,06,23.10
2011,07,23,16,07,23.10
2011,07,23,16,08,23.10
2011,07,23,16,09,23.10
2011,07,23,16,10,23.10
2011,07,23,16,11,23.10
2011,07,23,16,12,23.20
2011,07,23,16,13,23.30
2011,07,23,16,14,23.30
2011,07,23,16,15,23.30
2011,07,23,16,16,23.30
2011,07,23,16,17,23.20
2011,07,23,16,18,23.20
2011,07,23,16,19,23.20
2011,07,23,16,20,23.30
2011,07,23,16,21,23.30
2011,07,23,16,22,23.20
2011,07,23,16,23,23.20
2011,07,23,16,24,23.30
2011,07,23,16,25,23.40
2011,07,23,16,26,23.50
2011,07,23,16,27,23.70
2011,07,23,16,28,23.70
2011,07,23,16,29,23.70
2011,07,23,16,30,23.60
2011,07,23,16,31,23.60
2011,07,23,16,32,23.60
2011,07,23,16,33,23.60
2011,07,23,16,34,23.50
2011,07,23,16,35,23.50
2011,07,23,16,36,23.30
2011,07,23,16,37,23.10
2011,07,23,16,38,23.00
2011,07,23,16,39,22.90
2011,07,23,16,40,22.80
2011,07,23,16,41,22.70
2011,07,23,16,42,22.70
2011,07,23,16,43,22.70
2011,07,23,16,44,22.70
2011,07,23,16,45,22.90
2011,07,23,16,46,22.90
2011,07,23,16,47,23.00
2011,07,23,16,48,23.10
2011,07,23,16,49,23.20
2011,07,23,16,50,23.30
2011,07,23,16,51,23.30
2011,07,23,16,52,23.40
2011,07,23,16,53,23.50
2011,07,23,16,54,23.60
2011,07,23,16,55,23.70
2011,07,23,16,56,23.70
2011,07,23,16,57,23.70
2011,07,23,16,58,23.70
2011,07,23,16,59,23.60
2011,07,23,17,00,23.50
2011,07,23,17,01,23.40
2011,07,23,17,02,23.30
2011,07,23,17,03,23.20
2011,07,23,17,04,23.20
2011,07,23,17,05,23.20
2011,07,23,17,06,23.20
2011,07,23,17,07,23.30
2011,07,23,17,08,23.30
2011,07,23,17,09,23.20
2011,07,23,17,10,23.20
2011,07,23,17,11,23.20
2011,07,23,17,12,23.10
2011,07,23,17,13,23.00
2011,07,23,17,14,22.80
2011,07,23,17,15,22.70
2011,07,23,17,16,22.60
2011,07,23,17,17,22.60
2011,07,23,17,18,22.60
2011,07,23,17,19,22.50
2011,07,23,17,20,22.40
2011,07,23,17,21,22.40
2011,07,23,17,22,22.40
2011,07,23,17,23,22.50
2011,07,23,17,24,22.50
2011,07,23,17,25,22.60
2011,07,23,17,26,22.60
2011,07,23,17,27,22.70
2011,07,23,17,28,22.80
2011,07,23,17,29,22.90
2011,07,23,17,30,22.90
2011,07,23,17,31,23.00